| time (UTC) | temp C | wind direction | speed KPH | gust KPH | rain 1hr cm | rain 24hr cm | rain mn cm | humidity % | barometer mb |
| 20260509043612 | 11 | 212 | 3.2 | 8.0 | 0.00 | 0.53 | 0.00 | 95 | 1007.4 |
| 20260509043127 | 11 | 204 | 3.2 | 8.0 | 0.00 | 0.53 | 0.00 | 95 | 1007.4 |
| 20260509042614 | 11 | 209 | 4.8 | 8.0 | 0.00 | 0.53 | 0.00 | 95 | 1007.5 |
| 20260509042130 | 11 | 211 | 1.6 | 4.8 | 0.00 | 0.53 | 0.00 | 95 | 1007.6 |
| 20260509041618 | 11 | 209 | 0.0 | 4.8 | 0.00 | 0.53 | 0.00 | 95 | 1007.5 |
| 20260509041132 | 11 | 195 | 0.0 | 4.8 | 0.00 | 0.53 | 0.00 | 95 | 1007.6 |
| 20260509040620 | 11 | 165 | 3.2 | 4.8 | 0.00 | 0.53 | 0.00 | 95 | 1007.6 |
| 20260509035618 | 11 | 145 | 0.0 | 0.0 | 0.00 | 0.53 | 0.53 | 94 | 1007.5 |
| 20260509035110 | 11 | 131 | 0.0 | 0.0 | 0.00 | 0.53 | 0.53 | 94 | 1007.6 |
| 20260509034619 | 11 | 131 | 0.0 | 0.0 | 0.00 | 0.53 | 0.53 | 94 | 1007.6 |
| 20260509034113 | 11 | 131 | 0.0 | 0.0 | 0.00 | 0.53 | 0.53 | 94 | 1007.6 |
| 20260509033627 | 11 | 126 | 0.0 | 0.0 | 0.00 | 0.53 | 0.53 | 94 | 1007.6 |
| 20260509033115 | 11 | 157 | 0.0 | 0.0 | 0.00 | 0.53 | 0.53 | 94 | 1007.8 |
| 20260509032630 | 11 | 157 | 0.0 | 0.0 | 0.00 | 0.53 | 0.53 | 94 | 1007.8 |
| 20260509032117 | 11 | 138 | 0.0 | 1.6 | 0.00 | 0.53 | 0.53 | 94 | 1007.9 |
| 20260509031632 | 11 | 130 | 0.0 | 1.6 | 0.00 | 0.53 | 0.53 | 94 | 1007.9 |
| 20260509031149 | 11 | 211 | 0.0 | 1.6 | 0.00 | 0.53 | 0.53 | 94 | 1007.9 |
| 20260509030614 | 12 | 211 | 0.0 | 1.6 | 0.00 | 0.53 | 0.53 | 94 | 1008.0 |
| 20260509030129 | 11 | 220 | 0.0 | 3.2 | 0.00 | 0.53 | 0.53 | 94 | 1007.9 |
| 20260509025617 | 12 | 220 | 0.0 | 3.2 | 0.00 | 0.53 | 0.53 | 94 | 1008.0 |
| 20260509025112 | 12 | 199 | 0.0 | 3.2 | 0.00 | 0.53 | 0.53 | 94 | 1007.8 |
| 20260509024620 | 12 | 208 | 0.0 | 1.6 | 0.00 | 0.53 | 0.53 | 94 | 1007.9 |
| 20260509024115 | 12 | 190 | 1.6 | 1.6 | 0.00 | 0.53 | 0.53 | 94 | 1007.8 |
| 20260509023624 | 12 | 225 | 0.0 | 3.2 | 0.00 | 0.53 | 0.53 | 93 | 1007.9 |
| 20260509023115 | 12 | 209 | 1.6 | 3.2 | 0.00 | 0.53 | 0.53 | 93 | 1007.9 |
| 20260509022619 | 12 | 215 | 0.0 | 3.2 | 0.00 | 0.53 | 0.53 | 93 | 1008.0 |
| 20260509022112 | 12 | 192 | 1.6 | 3.2 | 0.00 | 0.53 | 0.53 | 93 | 1007.8 |
| 20260509021616 | 12 | 216 | 0.0 | 3.2 | 0.00 | 0.53 | 0.53 | 93 | 1007.8 |
| 20260509021132 | 12 | 177 | 0.0 | 3.2 | 0.00 | 0.53 | 0.53 | 93 | 1007.8 |
| 20260509020648 | 12 | 208 | 1.6 | 4.8 | 0.00 | 0.53 | 0.53 | 93 | 1007.8 |
| 20260509020122 | 12 | 205 | 1.6 | 4.8 | 0.00 | 0.53 | 0.53 | 93 | 1007.8 |
| 20260509015610 | 12 | 225 | 1.6 | 6.4 | 0.00 | 0.53 | 0.53 | 92 | 1007.8 |
| 20260509015126 | 12 | 223 | 3.2 | 6.4 | 0.00 | 0.53 | 0.53 | 92 | 1007.8 |
| 20260509014612 | 12 | 225 | 3.2 | 4.8 | 0.00 | 0.53 | 0.53 | 92 | 1007.8 |
| 20260509014126 | 12 | 192 | 3.2 | 9.7 | 0.00 | 0.53 | 0.53 | 92 | 1008.0 |
| 20260509013613 | 12 | 228 | 4.8 | 9.7 | 0.00 | 0.53 | 0.53 | 92 | 1007.9 |
| 20260509013128 | 12 | 216 | 3.2 | 9.7 | 0.00 | 0.53 | 0.53 | 91 | 1007.9 |
| 20260509012615 | 12 | 230 | 4.8 | 9.7 | 0.00 | 0.53 | 0.53 | 91 | 1008.0 |
| 20260509012109 | 12 | 220 | 4.8 | 12.9 | 0.00 | 0.53 | 0.53 | 91 | 1007.8 |
| 20260509011647 | 12 | 227 | 6.4 | 12.9 | 0.00 | 0.53 | 0.53 | 91 | 1007.9 |
| 20260509011114 | 12 | 212 | 8.0 | 12.9 | 0.00 | 0.53 | 0.53 | 91 | 1007.7 |
| 20260509010630 | 12 | 202 | 8.0 | 12.9 | 0.00 | 0.53 | 0.53 | 90 | 1007.8 |
| 20260509010116 | 12 | 204 | 8.0 | 12.9 | 0.00 | 0.53 | 0.53 | 90 | 1007.7 |
| 20260509005609 | 12 | 232 | 8.0 | 12.9 | 0.00 | 0.53 | 0.53 | 90 | 1007.7 |
| 20260509005124 | 12 | 223 | 8.0 | 12.9 | 0.00 | 0.53 | 0.53 | 90 | 1007.8 |
| 20260509004612 | 12 | 222 | 8.0 | 12.9 | 0.00 | 0.53 | 0.53 | 89 | 1007.7 |
| 20260509004127 | 13 | 221 | 6.4 | 12.9 | 0.00 | 0.53 | 0.53 | 89 | 1007.8 |
| 20260509003631 | 13 | 200 | 9.7 | 16.1 | 0.00 | 0.53 | 0.53 | 89 | 1007.8 |
| 20260509003124 | 13 | 230 | 9.7 | 16.1 | 0.00 | 0.53 | 0.53 | 88 | 1007.8 |
| 20260509002619 | 13 | 208 | 9.7 | 16.1 | 0.00 | 0.53 | 0.53 | 88 | 1007.8 |
| 20260509002127 | 13 | 212 | 8.0 | 14.5 | 0.00 | 0.53 | 0.53 | 88 | 1007.8 |
| 20260509001622 | 13 | 218 | 9.7 | 14.5 | 0.00 | 0.53 | 0.53 | 88 | 1007.9 |
| 20260509001110 | 13 | 223 | 6.4 | 17.7 | 0.00 | 0.53 | 0.53 | 88 | 1007.8 |
| 20260509000625 | 13 | 203 | 9.7 | 17.7 | 0.00 | 0.53 | 0.53 | 88 | 1007.9 |
| 20260509000133 | 13 | 214 | 9.7 | 12.9 | 0.00 | 0.53 | 0.53 | 88 | 1007.8 |
| 20260508235628 | 13 | 218 | 8.0 | 12.9 | 0.00 | 0.53 | 0.53 | 88 | 1007.7 |
| 20260508235121 | 13 | 230 | 11.3 | 12.9 | 0.00 | 0.53 | 0.53 | 88 | 1007.9 |
| 20260508234628 | 13 | 197 | 8.0 | 11.3 | 0.00 | 0.53 | 0.53 | 88 | 1008.0 |
| 20260508234122 | 13 | 213 | 8.0 | 12.9 | 0.00 | 0.53 | 0.53 | 89 | 1008.0 |
| 20260508233610 | 13 | 222 | 9.7 | 12.9 | 0.00 | 0.53 | 0.53 | 89 | 1008.0 |
| 20260508233125 | 13 | 207 | 8.0 | 14.5 | 0.00 | 0.53 | 0.53 | 89 | 1008.1 |
| 20260508232621 | 13 | 195 | 8.0 | 14.5 | 0.00 | 0.53 | 0.53 | 89 | 1008.1 |
| 20260508232109 | 13 | 196 | 8.0 | 12.9 | 0.00 | 0.53 | 0.53 | 88 | 1008.0 |
| 20260508231625 | 13 | 223 | 9.7 | 14.5 | 0.00 | 0.53 | 0.53 | 88 | 1008.1 |
| 20260508231135 | 13 | 212 | 8.0 | 14.5 | 0.00 | 0.53 | 0.53 | 88 | 1008.1 |
| 20260508230629 | 13 | 205 | 8.0 | 14.5 | 0.00 | 0.53 | 0.53 | 87 | 1008.0 |
| 20260508230123 | 13 | 190 | 9.7 | 14.5 | 0.00 | 0.53 | 0.53 | 88 | 1008.1 |
| 20260508225610 | 13 | 226 | 8.0 | 14.5 | 0.00 | 0.53 | 0.53 | 88 | 1008.1 |
| 20260508225124 | 13 | 223 | 8.0 | 14.5 | 0.00 | 0.53 | 0.53 | 88 | 1008.0 |
| 20260508224611 | 13 | 208 | 6.4 | 11.3 | 0.00 | 0.53 | 0.53 | 88 | 1008.0 |
| 20260508224122 | 13 | 222 | 6.4 | 14.5 | 0.00 | 0.53 | 0.53 | 88 | 1008.0 |
| 20260508223637 | 13 | 249 | 9.7 | 14.5 | 0.00 | 0.53 | 0.53 | 88 | 1008.2 |
| 20260508223154 | 13 | 225 | 6.4 | 12.9 | 0.03 | 0.53 | 0.53 | 89 | 1008.2 |
| 20260508222621 | 13 | 224 | 6.4 | 16.1 | 0.03 | 0.53 | 0.53 | 90 | 1008.2 |
| 20260508222135 | 13 | 218 | 8.0 | 16.1 | 0.03 | 0.53 | 0.53 | 89 | 1008.0 |
| 20260508221623 | 13 | 213 | 9.7 | 16.1 | 0.03 | 0.53 | 0.53 | 89 | 1008.1 |
| 20260508221109 | 13 | 228 | 6.4 | 12.9 | 0.03 | 0.53 | 0.53 | 91 | 1008.2 |
| 20260508220624 | 13 | 211 | 8.0 | 14.5 | 0.03 | 0.53 | 0.53 | 90 | 1008.3 |
| 20260508220118 | 13 | 223 | 9.7 | 14.5 | 0.03 | 0.53 | 0.53 | 90 | 1008.2 |
| 20260508215626 | 13 | 216 | 8.0 | 12.9 | 0.03 | 0.53 | 0.53 | 89 | 1008.2 |
| 20260508215121 | 13 | 216 | 8.0 | 12.9 | 0.03 | 0.53 | 0.53 | 89 | 1008.1 |
| 20260508214635 | 13 | 216 | 8.0 | 14.5 | 0.03 | 0.53 | 0.53 | 89 | 1008.1 |
| 20260508214123 | 13 | 235 | 9.7 | 17.7 | 0.03 | 0.53 | 0.53 | 88 | 1008.0 |
| 20260508213610 | 13 | 223 | 11.3 | 17.7 | 0.03 | 0.53 | 0.53 | 88 | 1008.1 |
| 20260508213125 | 13 | 216 | 11.3 | 17.7 | 0.00 | 0.51 | 0.51 | 88 | 1008.1 |
| 20260508212639 | 13 | 218 | 11.3 | 17.7 | 0.00 | 0.51 | 0.51 | 88 | 1008.2 |
| 20260508212116 | 13 | 220 | 12.9 | 17.7 | 0.03 | 0.51 | 0.51 | 87 | 1008.2 |
| 20260508211622 | 13 | 221 | 11.3 | 19.3 | 0.03 | 0.51 | 0.51 | 88 | 1008.4 |
| 20260508210625 | 13 | 226 | 11.3 | 16.1 | 0.08 | 0.51 | 0.51 | 89 | 1008.5 |
| 20260508210119 | 13 | 215 | 9.7 | 14.5 | 0.08 | 0.51 | 0.51 | 90 | 1008.6 |
| 20260508205652 | 13 | 197 | 9.7 | 16.1 | 0.10 | 0.51 | 0.51 | 90 | 1008.6 |
| 20260508205149 | 13 | 209 | 9.7 | 16.1 | 0.10 | 0.51 | 0.51 | 90 | 1008.6 |
| 20260508204615 | 13 | 224 | 9.7 | 16.1 | 0.13 | 0.51 | 0.51 | 91 | 1008.7 |
| 20260508204130 | 13 | 200 | 9.7 | 14.5 | 0.15 | 0.51 | 0.51 | 90 | 1008.6 |
| 20260508203617 | 13 | 218 | 8.0 | 12.9 | 0.15 | 0.51 | 0.51 | 90 | 1008.7 |
| 20260508203113 | 13 | 210 | 9.7 | 12.9 | 0.18 | 0.51 | 0.51 | 90 | 1008.9 |
| 20260508202621 | 13 | 225 | 6.4 | 12.9 | 0.18 | 0.51 | 0.51 | 90 | 1009.0 |
| 20260508202115 | 13 | 237 | 9.7 | 12.9 | 0.18 | 0.48 | 0.48 | 89 | 1009.0 |
| 20260508201652 | 13 | 266 | 8.0 | 14.5 | 0.18 | 0.48 | 0.48 | 89 | 1009.1 |
| 20260508201118 | 13 | 244 | 9.7 | 14.5 | 0.23 | 0.46 | 0.46 | 90 | 1009.1 |
| 20260508200633 | 13 | 263 | 8.0 | 11.3 | 0.23 | 0.43 | 0.43 | 91 | 1009.2 |
| 20260508200118 | 13 | 247 | 3.2 | 11.3 | 0.28 | 0.43 | 0.43 | 91 | 1009.2 |
| 20260508195610 | 13 | 258 | 4.8 | 11.3 | 0.30 | 0.41 | 0.41 | 91 | 1009.5 |
| 20260508195119 | 13 | 228 | 6.4 | 9.7 | 0.33 | 0.41 | 0.41 | 91 | 1009.6 |
| 20260508194612 | 13 | 245 | 4.8 | 11.3 | 0.30 | 0.38 | 0.38 | 91 | 1009.7 |
| 20260508194128 | 13 | 255 | 6.4 | 12.9 | 0.30 | 0.36 | 0.36 | 90 | 1009.7 |
| 20260508193614 | 13 | 263 | 8.0 | 12.9 | 0.30 | 0.36 | 0.36 | 90 | 1009.7 |
| 20260508193131 | 13 | 240 | 9.7 | 16.1 | 0.28 | 0.33 | 0.33 | 90 | 1009.7 |
| 20260508192619 | 13 | 258 | 9.7 | 16.1 | 0.28 | 0.33 | 0.33 | 90 | 1010.0 |
| 20260508192135 | 13 | 273 | 9.7 | 17.7 | 0.28 | 0.30 | 0.30 | 89 | 1009.9 |
| 20260508191648 | 13 | 264 | 9.7 | 19.3 | 0.28 | 0.30 | 0.30 | 88 | 1009.9 |
| 20260508191142 | 13 | 265 | 9.7 | 22.5 | 0.20 | 0.23 | 0.23 | 88 | 1010.0 |
| 20260508190609 | 13 | 285 | 12.9 | 22.5 | 0.15 | 0.18 | 0.18 | 86 | 1009.9 |
| 20260508190124 | 13 | 267 | 11.3 | 17.7 | 0.13 | 0.15 | 0.15 | 85 | 1010.0 |
| 20260508185611 | 14 | 268 | 12.9 | 25.7 | 0.08 | 0.10 | 0.10 | 82 | 1010.0 |
| 20260508185126 | 14 | 276 | 16.1 | 29.0 | 0.05 | 0.08 | 0.08 | 79 | 1009.9 |
| 20260508184620 | 15 | 284 | 17.7 | 27.4 | 0.05 | 0.08 | 0.08 | 77 | 1009.8 |
| 20260508184129 | 15 | 257 | 12.9 | 20.9 | 0.03 | 0.05 | 0.05 | 78 | 1009.9 |
| 20260508183622 | 15 | 278 | 12.9 | 20.9 | 0.03 | 0.05 | 0.05 | 78 | 1009.9 |
| 20260508183116 | 15 | 252 | 14.5 | 22.5 | 0.03 | 0.05 | 0.05 | 76 | 1009.9 |
| 20260508182630 | 15 | 268 | 14.5 | 25.7 | 0.03 | 0.05 | 0.05 | 74 | 1009.9 |
| 20260508182118 | 16 | 264 | 16.1 | 29.0 | 0.00 | 0.03 | 0.03 | 71 | 1009.9 |
| 20260508181613 | 17 | 270 | 22.5 | 29.0 | 0.00 | 0.03 | 0.03 | 65 | 1009.7 |
| 20260508181127 | 17 | 240 | 12.9 | 22.5 | 0.00 | 0.03 | 0.03 | 66 | 1009.7 |
| 20260508180615 | 17 | 221 | 14.5 | 22.5 | 0.00 | 0.03 | 0.03 | 64 | 1009.7 |
| 20260508180130 | 17 | 244 | 16.1 | 22.5 | 0.00 | 0.03 | 0.03 | 64 | 1009.8 |
| 20260508175619 | 17 | 221 | 12.9 | 20.9 | 0.00 | 0.03 | 0.03 | 66 | 1009.9 |
| 20260508175112 | 17 | 241 | 12.9 | 17.7 | 0.00 | 0.03 | 0.03 | 64 | 1009.9 |
| 20260508174627 | 17 | 249 | 11.3 | 19.3 | 0.00 | 0.03 | 0.03 | 65 | 1010.0 |
| 20260508174114 | 16 | 228 | 9.7 | 19.3 | 0.00 | 0.03 | 0.03 | 66 | 1010.1 |
| 20260508173630 | 16 | 231 | 11.3 | 14.5 | 0.00 | 0.03 | 0.03 | 64 | 1010.2 |
| 20260508173117 | 16 | 228 | 11.3 | 14.5 | 0.00 | 0.03 | 0.03 | 64 | 1010.1 |
| 20260508172627 | 16 | 226 | 8.0 | 19.3 | 0.00 | 0.03 | 0.03 | 66 | 1010.1 |
| 20260508172137 | 16 | 235 | 8.0 | 19.3 | 0.00 | 0.03 | 0.03 | 67 | 1010.3 |
| 20260508171610 | 16 | 212 | 8.0 | 14.5 | 0.00 | 0.03 | 0.03 | 66 | 1010.3 |
| 20260508171124 | 16 | 213 | 11.3 | 17.7 | 0.00 | 0.03 | 0.03 | 65 | 1010.5 |
| 20260508170612 | 16 | 203 | 11.3 | 17.7 | 0.00 | 0.03 | 0.03 | 64 | 1010.5 |
| 20260508170127 | 16 | 218 | 8.0 | 16.1 | 0.00 | 0.03 | 0.03 | 65 | 1010.6 |
| 20260508165615 | 16 | 208 | 12.9 | 19.3 | 0.00 | 0.03 | 0.03 | 65 | 1010.6 |
| 20260508165129 | 16 | 226 | 9.7 | 19.3 | 0.00 | 0.03 | 0.03 | 64 | 1010.8 |
| 20260508164615 | 16 | 241 | 12.9 | 17.7 | 0.00 | 0.03 | 0.03 | 65 | 1010.8 |
| 20260508164109 | 15 | 261 | 12.9 | 20.9 | 0.00 | 0.03 | 0.03 | 64 | 1010.9 |
| 20260508163615 | 15 | 244 | 9.7 | 20.9 | 0.00 | 0.03 | 0.03 | 64 | 1011.0 |
| 20260508163130 | 15 | 244 | 9.7 | 17.7 | 0.00 | 0.03 | 0.03 | 66 | 1011.0 |
| 20260508162626 | 15 | 225 | 9.7 | 16.1 | 0.00 | 0.03 | 0.03 | 66 | 1011.1 |
| 20260508162111 | 15 | 228 | 8.0 | 16.1 | 0.00 | 0.03 | 0.03 | 67 | 1011.2 |
| 20260508161626 | 15 | 229 | 11.3 | 16.1 | 0.00 | 0.03 | 0.03 | 66 | 1011.4 |
| 20260508161114 | 15 | 220 | 9.7 | 16.1 | 0.00 | 0.03 | 0.03 | 66 | 1011.3 |
| 20260508160629 | 15 | 232 | 11.3 | 16.1 | 0.00 | 0.03 | 0.03 | 66 | 1011.3 |
| 20260508160116 | 15 | 251 | 11.3 | 20.9 | 0.00 | 0.03 | 0.03 | 67 | 1011.3 |
| 20260508155631 | 15 | 232 | 11.3 | 20.9 | 0.00 | 0.03 | 0.03 | 68 | 1011.3 |
| 20260508155119 | 15 | 209 | 12.9 | 19.3 | 0.00 | 0.03 | 0.03 | 65 | 1011.4 |
| 20260508154635 | 15 | 261 | 9.7 | 16.1 | 0.00 | 0.03 | 0.03 | 66 | 1011.4 |
| 20260508154130 | 15 | 201 | 12.9 | 16.1 | 0.00 | 0.03 | 0.03 | 66 | 1011.5 |
| 20260508153616 | 15 | 213 | 9.7 | 14.5 | 0.00 | 0.03 | 0.03 | 67 | 1011.4 |
| 20260508153111 | 15 | 202 | 9.7 | 16.1 | 0.00 | 0.03 | 0.03 | 67 | 1011.3 |
| 20260508152618 | 15 | 216 | 11.3 | 16.1 | 0.00 | 0.03 | 0.03 | 68 | 1011.5 |
| 20260508152112 | 15 | 202 | 9.7 | 17.7 | 0.00 | 0.03 | 0.03 | 69 | 1011.4 |
| 20260508151616 | 14 | 244 | 12.9 | 20.9 | 0.00 | 0.03 | 0.03 | 67 | 1011.5 |
| 20260508151128 | 14 | 207 | 12.9 | 20.9 | 0.00 | 0.03 | 0.03 | 69 | 1011.7 |
| 20260508150616 | 14 | 211 | 11.3 | 16.1 | 0.00 | 0.03 | 0.03 | 70 | 1011.6 |
| 20260508150110 | 13 | 248 | 9.7 | 16.1 | 0.00 | 0.03 | 0.03 | 70 | 1011.6 |
| 20260508145620 | 13 | 219 | 11.3 | 16.1 | 0.00 | 0.03 | 0.03 | 70 | 1011.7 |
| 20260508145114 | 13 | 253 | 4.8 | 11.3 | 0.00 | 0.03 | 0.03 | 74 | 1011.8 |
| 20260508144630 | 12 | 228 | 8.0 | 11.3 | 0.00 | 0.03 | 0.03 | 71 | 1011.9 |
| 20260508144117 | 12 | 233 | 6.4 | 11.3 | 0.00 | 0.03 | 0.03 | 73 | 1011.9 |
| 20260508143632 | 12 | 255 | 4.8 | 9.7 | 0.00 | 0.03 | 0.03 | 74 | 1012.0 |
| 20260508143126 | 12 | 258 | 6.4 | 9.7 | 0.00 | 0.03 | 0.03 | 76 | 1012.0 |
| 20260508142614 | 12 | 272 | 4.8 | 9.7 | 0.00 | 0.03 | 0.03 | 78 | 1012.2 |
| 20260508142130 | 12 | 258 | 6.4 | 11.3 | 0.00 | 0.03 | 0.03 | 77 | 1012.2 |
| 20260508141617 | 11 | 250 | 6.4 | 11.3 | 0.00 | 0.03 | 0.03 | 79 | 1012.1 |
| 20260508141132 | 11 | 242 | 6.4 | 9.7 | 0.00 | 0.03 | 0.03 | 78 | 1012.0 |
| 20260508140621 | 11 | 218 | 8.0 | 9.7 | 0.00 | 0.03 | 0.03 | 77 | 1012.2 |
| 20260508140136 | 11 | 239 | 4.8 | 6.4 | 0.00 | 0.03 | 0.03 | 78 | 1012.2 |
| 20260508135610 | 11 | 245 | 3.2 | 6.4 | 0.00 | 0.03 | 0.03 | 79 | 1012.3 |
| 20260508135119 | 11 | 242 | 3.2 | 8.0 | 0.00 | 0.03 | 0.03 | 79 | 1012.4 |
| 20260508134614 | 11 | 240 | 4.8 | 8.0 | 0.00 | 0.03 | 0.03 | 79 | 1012.4 |
| 20260508134129 | 11 | 250 | 3.2 | 9.7 | 0.00 | 0.03 | 0.03 | 79 | 1012.4 |
| 20260508133616 | 11 | 270 | 6.4 | 11.3 | 0.00 | 0.03 | 0.03 | 77 | 1012.5 |
| 20260508133132 | 11 | 270 | 8.0 | 14.5 | 0.00 | 0.03 | 0.03 | 76 | 1012.4 |
| 20260508132619 | 11 | 256 | 9.7 | 14.5 | 0.00 | 0.03 | 0.03 | 76 | 1012.4 |
| 20260508132129 | 11 | 239 | 6.4 | 12.9 | 0.00 | 0.03 | 0.03 | 77 | 1012.2 |
| 20260508131617 | 11 | 230 | 8.0 | 12.9 | 0.00 | 0.03 | 0.03 | 77 | 1012.1 |
| 20260508131132 | 11 | 218 | 8.0 | 12.9 | 0.00 | 0.03 | 0.03 | 78 | 1012.0 |
| 20260508130641 | 11 | 205 | 6.4 | 11.3 | 0.00 | 0.03 | 0.03 | 78 | 1011.9 |
| 20260508130114 | 11 | 214 | 4.8 | 11.3 | 0.00 | 0.03 | 0.03 | 78 | 1011.9 |
| 20260508125651 | 11 | 214 | 8.0 | 11.3 | 0.00 | 0.03 | 0.03 | 79 | 1011.9 |
| 20260508125115 | 10 | 214 | 6.4 | 9.7 | 0.00 | 0.03 | 0.03 | 82 | 1012.1 |
| 20260508124610 | 10 | 215 | 6.4 | 9.7 | 0.00 | 0.03 | 0.03 | 82 | 1012.0 |
| 20260508124124 | 10 | 222 | 3.2 | 6.4 | 0.00 | 0.03 | 0.03 | 83 | 1012.2 |
| 20260508123612 | 10 | 206 | 4.8 | 6.4 | 0.00 | 0.03 | 0.03 | 83 | 1012.2 |
| 20260508123126 | 10 | 211 | 3.2 | 6.4 | 0.00 | 0.03 | 0.03 | 83 | 1012.1 |
| 20260508122612 | 10 | 221 | 3.2 | 6.4 | 0.00 | 0.03 | 0.03 | 84 | 1012.2 |
| 20260508122127 | 10 | 224 | 3.2 | 6.4 | 0.00 | 0.03 | 0.03 | 84 | 1012.1 |
| 20260508121614 | 10 | 227 | 3.2 | 6.4 | 0.03 | 0.03 | 0.03 | 84 | 1012.2 |
| 20260508121110 | 10 | 230 | 4.8 | 8.0 | 0.03 | 0.03 | 0.03 | 84 | 1012.0 |
| 20260508120619 | 10 | 211 | 4.8 | 8.0 | 0.03 | 0.03 | 0.03 | 84 | 1012.1 |
| 20260508120135 | 10 | 222 | 4.8 | 9.7 | 0.03 | 0.03 | 0.03 | 84 | 1012.1 |
| 20260508115629 | 10 | 210 | 6.4 | 9.7 | 0.03 | 0.03 | 0.03 | 84 | 1012.1 |
| 20260508115117 | 10 | 228 | 6.4 | 11.3 | 0.03 | 0.03 | 0.03 | 84 | 1012.1 |
| 20260508114612 | 9 | 254 | 6.4 | 12.9 | 0.03 | 0.03 | 0.03 | 84 | 1012.0 |
| 20260508114121 | 9 | 232 | 6.4 | 17.7 | 0.03 | 0.03 | 0.03 | 84 | 1011.9 |
| 20260508113616 | 9 | 247 | 11.3 | 17.7 | 0.03 | 0.03 | 0.03 | 84 | 1011.8 |
| 20260508113124 | 10 | 211 | 11.3 | 20.9 | 0.03 | 0.03 | 0.03 | 84 | 1011.8 |
| 20260508112619 | 10 | 230 | 12.9 | 20.9 | 0.03 | 0.03 | 0.03 | 83 | 1011.6 |
| 20260508112131 | 10 | 231 | 11.3 | 17.7 | 0.03 | 0.03 | 0.03 | 83 | 1011.4 |
| 20260508111618 | 10 | 261 | 11.3 | 17.7 | 0.00 | 0.00 | 0.00 | 83 | 1011.7 |
| 20260508111134 | 10 | 211 | 11.3 | 17.7 | 0.00 | 0.00 | 0.00 | 83 | 1011.9 |
| 20260508110621 | 10 | 245 | 12.9 | 17.7 | 0.00 | 0.00 | 0.00 | 82 | 1011.8 |
| 20260508110137 | 10 | 254 | 11.3 | 19.3 | 0.00 | 0.00 | 0.00 | 82 | 1011.8 |
| 20260508105622 | 10 | 279 | 12.9 | 19.3 | 0.00 | 0.00 | 0.00 | 81 | 1011.7 |
| 20260508105138 | 10 | 249 | 12.9 | 19.3 | 0.00 | 0.00 | 0.00 | 80 | 1011.5 |
| 20260508104632 | 10 | 238 | 14.5 | 19.3 | 0.00 | 0.00 | 0.00 | 78 | 1011.3 |
| 20260508104120 | 10 | 228 | 9.7 | 17.7 | 0.00 | 0.00 | 0.00 | 76 | 1011.7 |
| 20260508103636 | 10 | 249 | 12.9 | 19.3 | 0.00 | 0.00 | 0.00 | 74 | 1011.5 |
| 20260508103122 | 10 | 230 | 11.3 | 22.5 | 0.00 | 0.00 | 0.00 | 73 | 1011.6 |
| 20260508102617 | 11 | 223 | 12.9 | 22.5 | 0.00 | 0.00 | 0.00 | 73 | 1011.7 |
| 20260508102155 | 10 | 234 | 12.9 | 19.3 | 0.00 | 0.00 | 0.00 | 74 | 1011.6 |
| 20260508101643 | 10 | 232 | 11.3 | 17.7 | 0.00 | 0.00 | 0.00 | 75 | 1011.5 |
| 20260508101139 | 10 | 233 | 11.3 | 19.3 | 0.00 | 0.00 | 0.00 | 75 | 1011.7 |
| 20260508100633 | 10 | 242 | 12.9 | 19.3 | 0.00 | 0.00 | 0.00 | 75 | 1011.5 |
| 20260508100120 | 10 | 235 | 11.3 | 19.3 | 0.00 | 0.00 | 0.00 | 76 | 1011.4 |
| 20260508095638 | 10 | 249 | 11.3 | 20.9 | 0.00 | 0.00 | 0.00 | 75 | 1011.4 |
| 20260508095132 | 10 | 225 | 11.3 | 20.9 | 0.00 | 0.00 | 0.00 | 75 | 1011.3 |
| 20260508094618 | 11 | 232 | 12.9 | 27.4 | 0.00 | 0.00 | 0.00 | 74 | 1011.4 |
| 20260508094113 | 11 | 240 | 17.7 | 27.4 | 0.00 | 0.00 | 0.00 | 73 | 1011.4 |
| 20260508093616 | 11 | 216 | 11.3 | 24.1 | 0.00 | 0.00 | 0.00 | 74 | 1011.6 |
| 20260508093111 | 11 | 250 | 14.5 | 25.7 | 0.00 | 0.00 | 0.00 | 73 | 1011.6 |
| 20260508092619 | 11 | 245 | 14.5 | 25.7 | 0.00 | 0.00 | 0.00 | 73 | 1011.7 |
| 20260508092114 | 11 | 226 | 14.5 | 25.7 | 0.00 | 0.00 | 0.00 | 73 | 1011.8 |
| 20260508091623 | 11 | 259 | 16.1 | 29.0 | 0.00 | 0.00 | 0.00 | 72 | 1011.8 |
| 20260508091116 | 11 | 238 | 19.3 | 37.0 | 0.00 | 0.00 | 0.00 | 71 | 1011.9 |
| 20260508090625 | 11 | 226 | 17.7 | 30.6 | 0.00 | 0.00 | 0.00 | 71 | 1011.9 |
| 20260508090119 | 11 | 246 | 12.9 | 20.9 | 0.00 | 0.00 | 0.00 | 71 | 1012.2 |
| 20260508085634 | 11 | 256 | 12.9 | 20.9 | 0.00 | 0.00 | 0.00 | 72 | 1011.9 |
| 20260508085120 | 11 | 257 | 14.5 | 20.9 | 0.00 | 0.00 | 0.00 | 72 | 1011.8 |
| 20260508084636 | 11 | 242 | 12.9 | 20.9 | 0.00 | 0.00 | 0.00 | 72 | 1011.7 |
| 20260508084153 | 11 | 236 | 11.3 | 17.7 | 0.00 | 0.00 | 0.00 | 73 | 1011.6 |
| 20260508083619 | 10 | 232 | 11.3 | 17.7 | 0.00 | 0.00 | 0.00 | 75 | 1011.5 |
| 20260508083136 | 10 | 237 | 11.3 | 14.5 | 0.00 | 0.00 | 0.00 | 76 | 1011.5 |
| 20260508082623 | 10 | 256 | 8.0 | 17.7 | 0.00 | 0.00 | 0.00 | 77 | 1011.5 |
| 20260508082119 | 10 | 247 | 11.3 | 17.7 | 0.00 | 0.00 | 0.00 | 76 | 1011.6 |
| 20260508081627 | 10 | 225 | 8.0 | 16.1 | 0.00 | 0.00 | 0.00 | 77 | 1011.5 |
| 20260508081121 | 10 | 237 | 9.7 | 19.3 | 0.00 | 0.00 | 0.00 | 77 | 1011.4 |
| 20260508080609 | 10 | 241 | 11.3 | 17.7 | 0.00 | 0.00 | 0.00 | 76 | 1011.3 |
| 20260508080124 | 10 | 246 | 9.7 | 16.1 | 0.00 | 0.00 | 0.00 | 76 | 1011.4 |
| 20260508075634 | 10 | 235 | 11.3 | 19.3 | 0.00 | 0.00 | 0.00 | 75 | 1011.4 |
| 20260508075122 | 10 | 232 | 11.3 | 22.5 | 0.00 | 0.00 | 0.00 | 74 | 1011.6 |
| 20260508074617 | 10 | 235 | 16.1 | 25.7 | 0.00 | 0.00 | 0.00 | 74 | 1011.6 |
| 20260508074127 | 10 | 237 | 12.9 | 25.7 | 0.00 | 0.00 | 0.00 | 73 | 1011.6 |
| 20260508073620 | 10 | 233 | 14.5 | 25.7 | 0.00 | 0.00 | 0.00 | 73 | 1011.8 |
| 20260508073125 | 10 | 244 | 14.5 | 25.7 | 0.00 | 0.00 | 0.00 | 73 | 1011.9 |
| 20260508072616 | 10 | 236 | 14.5 | 22.5 | 0.00 | 0.00 | 0.00 | 73 | 1011.7 |
| 20260508072124 | 10 | 223 | 11.3 | 20.9 | 0.00 | 0.00 | 0.00 | 74 | 1011.9 |
| 20260508071640 | 10 | 237 | 14.5 | 20.9 | 0.00 | 0.00 | 0.00 | 74 | 1011.7 |
| 20260508071114 | 10 | 233 | 12.9 | 20.9 | 0.00 | 0.00 | 0.00 | 74 | 1011.7 |
| 20260508070620 | 10 | 230 | 14.5 | 20.9 | 0.00 | 0.00 | 0.00 | 74 | 1011.8 |
| 20260508070135 | 10 | 229 | 12.9 | 19.3 | 0.00 | 0.00 | 0.00 | 74 | 1011.9 |
| 20260508065630 | 10 | 240 | 14.5 | 19.3 | 0.00 | 0.00 | 0.00 | 75 | 1011.9 |
| 20260508065117 | 10 | 229 | 12.9 | 20.9 | 0.00 | 0.00 | 0.00 | 75 | 1011.9 |
| 20260508064612 | 10 | 241 | 9.7 | 20.9 | 0.00 | 0.00 | 0.00 | 76 | 1012.0 |
| 20260508064149 | 10 | 239 | 11.3 | 19.3 | 0.00 | 0.00 | 0.00 | 76 | 1011.9 |
| 20260508063617 | 10 | 248 | 11.3 | 16.1 | 0.00 | 0.00 | 0.00 | 76 | 1012.0 |
| 20260508063127 | 10 | 250 | 9.7 | 16.1 | 0.00 | 0.00 | 0.00 | 77 | 1011.9 |
| 20260508062642 | 9 | 224 | 9.7 | 16.1 | 0.00 | 0.00 | 0.00 | 77 | 1012.0 |
| 20260508062130 | 9 | 224 | 9.7 | 14.5 | 0.00 | 0.00 | 0.00 | 78 | 1011.9 |
| 20260508061623 | 8 | 229 | 6.4 | 11.3 | 0.00 | 0.00 | 0.00 | 80 | 1011.9 |
| 20260508061109 | 8 | 218 | 4.8 | 11.3 | 0.00 | 0.00 | 0.00 | 81 | 1012.0 |
| 20260508060646 | 8 | 224 | 3.2 | 8.0 | 0.00 | 0.00 | 0.00 | 82 | 1012.0 |
| 20260508060113 | 8 | 195 | 3.2 | 6.4 | 0.00 | 0.00 | 0.00 | 82 | 1012.1 |
| 20260508055624 | 8 | 223 | 3.2 | 6.4 | 0.00 | 0.00 | 0.00 | 82 | 1012.1 |
| 20260508055118 | 8 | 214 | 3.2 | 4.8 | 0.00 | 0.00 | 0.00 | 83 | 1012.1 |
| 20260508054627 | 8 | 211 | 3.2 | 6.4 | 0.00 | 0.00 | 0.00 | 83 | 1012.2 |
| 20260508054122 | 8 | 215 | 3.2 | 6.4 | 0.00 | 0.00 | 0.00 | 83 | 1012.2 |
| 20260508053609 | 8 | 212 | 4.8 | 6.4 | 0.00 | 0.00 | 0.00 | 84 | 1012.3 |
| 20260508053124 | 8 | 232 | 3.2 | 4.8 | 0.00 | 0.00 | 0.00 | 83 | 1012.3 |
| 20260508052611 | 8 | 217 | 3.2 | 9.7 | 0.00 | 0.00 | 0.00 | 83 | 1012.3 |
| 20260508052126 | 8 | 221 | 4.8 | 9.7 | 0.00 | 0.00 | 0.00 | 83 | 1012.3 |
| 20260508051614 | 8 | 211 | 4.8 | 9.7 | 0.00 | 0.00 | 0.00 | 83 | 1012.3 |
| 20260508051129 | 8 | 223 | 6.4 | 8.0 | 0.00 | 0.00 | 0.00 | 84 | 1012.3 |
| 20260508050617 | 8 | 228 | 3.2 | 6.4 | 0.00 | 0.00 | 0.00 | 84 | 1012.3 |
| 20260508050111 | 8 | 231 | 3.2 | 4.8 | 0.00 | 0.00 | 0.00 | 84 | 1012.2 |
| 20260508045618 | 8 | 223 | 3.2 | 4.8 | 0.00 | 0.00 | 0.00 | 83 | 1012.3 |
| 20260508045111 | 8 | 211 | 3.2 | 4.8 | 0.00 | 0.00 | 0.00 | 82 | 1012.3 |
| 20260508044626 | 8 | 204 | 3.2 | 6.4 | 0.00 | 0.00 | 0.00 | 82 | 1012.3 |
| 20260508044114 | 8 | 212 | 3.2 | 6.4 | 0.00 | 0.00 | 0.00 | 84 | 1012.4 |